�N����,����,�g�[���i���ԁj���x,�g�[�����x,��g�[���i���ցj���x,����
 2003/11/01, 0:00,23.6,56,20.7,19.9
 2003/11/01, 0:15,23.4,57,20.7,20
 2003/11/01, 0:30,23.2,57,20.7,20.1
 2003/11/01, 0:45,23.2,57,20.7,20.2
 2003/11/01, 1:00,23.2,57,20.7,20.3
 2003/11/01, 1:15,23.1,58,20.7,20.4
 2003/11/01, 1:30,23,58,20.7,20
 2003/11/01, 1:45,22.8,58,20.6,20
 2003/11/01, 2:00,22.7,58,20.6,20.1
 2003/11/01, 2:15,22.6,58,20.6,20.2
 2003/11/01, 2:30,22.6,58,20.6,20.3
 2003/11/01, 2:45,22.4,58,20.5,20.4
 2003/11/01, 3:00,22.3,58,20.5,20.5
 2003/11/01, 3:15,22.4,57,20.5,20.5
 2003/11/01, 3:30,22.2,58,20.4,20.6
 2003/11/01, 3:45,22.2,58,20.4,20.7
 2003/11/01, 4:00,22.1,58,20.4,20.8
 2003/11/01, 4:15,22,58,20.3,20.8
 2003/11/01, 4:30,21.9,58,20.3,20.9
 2003/11/01, 4:45,21.9,58,20.2,21
 2003/11/01, 5:00,21.8,58,20.2,21
 2003/11/01, 5:15,21.8,58,20.2,21.1
 2003/11/01, 5:30,21.7,58,20.1,21.2
 2003/11/01, 5:45,21.7,58,20.1,21.2
 2003/11/01, 6:00,21.6,58,20.1,21.3
 2003/11/01, 6:15,21.5,58,20,21.3
 2003/11/01, 6:30,21.4,58,20,21.4
 2003/11/01, 6:45,21.4,59,20,21.4
 2003/11/01, 7:00,21.6,58,19.9,21.5
 2003/11/01, 7:15,21.7,58,19.9,21.6
 2003/11/01, 7:30,21.8,58,19.9,21.6
 2003/11/01, 7:45,21.9,58,19.9,21.6
 2003/11/01, 8:00,21.5,59,19.9,19.6
 2003/11/01, 8:15,23,55,20,19.7
 2003/11/01, 8:30,23.8,53,20.1,19.7
 2003/11/01, 8:45,24.6,50,20.3,19.4
 2003/11/01, 9:00,25.1,50,20.7,18.7
 2003/11/01, 9:15,25.2,49,20.7,18.9
 2003/11/01, 9:30,25.5,48,21,19
 2003/11/01, 9:45,25.6,48,21.4,19.1
 2003/11/01,10:00,25.4,49,21.8,19.2
 2003/11/01,10:15,24.6,51,21.9,19.3
 2003/11/01,10:30,24.8,52,22.1,19.3
 2003/11/01,10:45,24.5,53,22.2,19.4
 2003/11/01,11:00,24.5,53,22.3,19.5
 2003/11/01,11:15,24.1,53,22.1,19.6
 2003/11/01,11:30,23.8,54,21.8,19.6
 2003/11/01,11:45,24.1,53,22,19.7
 2003/11/01,12:00,24.5,52,22.4,19.8
 2003/11/01,12:15,24.3,50,22.5,19.9
 2003/11/01,12:30,24.3,50,22.5,20
 2003/11/01,12:45,24.3,49,22.5,20
 2003/11/01,13:00,24.1,49,22.5,20.1
 2003/11/01,13:15,24.1,48,22.5,20.2
 2003/11/01,13:30,24.5,45,22.6,20.3
 2003/11/01,13:45,24.4,45,22.7,20.3
 2003/11/01,14:00,24.4,45,22.8,20.4
 2003/11/01,14:15,24.4,46,22.9,20.1
 2003/11/01,14:30,24.4,45,23.1,20.2
 2003/11/01,14:45,24.4,46,23.1,20.3
 2003/11/01,15:00,24.4,43,23.1,20.2
 2003/11/01,15:15,24.4,46,23.1,20.3
 2003/11/01,15:30,24.5,45,23.1,20.4
 2003/11/01,15:45,24.4,46,23.1,20.5
 2003/11/01,16:00,24.3,46,23.1,20.6
 2003/11/01,16:15,24.2,45,23,20.7
 2003/11/01,16:30,24.1,46,23,20.8
 2003/11/01,16:45,23.7,46,22.9,20.9
 2003/11/01,17:00,23.8,48,22.8,21
 2003/11/01,17:15,24,48,22.8,20.6
 2003/11/01,17:30,24,49,22.8,20.6
 2003/11/01,17:45,24.1,48,22.8,20.7
 2003/11/01,18:00,24,47,22.7,20.8
 2003/11/01,18:15,23.8,47,22.7,20.6
 2003/11/01,18:30,24,47,22.7,20.7
 2003/11/01,18:45,24.3,48,22.6,19.9
 2003/11/01,19:00,24,48,22.5,20
 2003/11/01,19:15,23.9,48,22.5,19.9
 2003/11/01,19:30,24,50,22.4,20
 2003/11/01,19:45,24.4,50,22.3,20.1
 2003/11/01,20:00,24.6,51,22.3,20.2
 2003/11/01,20:15,24.7,51,22.2,20.5
 2003/11/01,20:30,24.7,51,22.2,20.4
 2003/11/01,20:45,24.8,52,22.2,20.2
 2003/11/01,21:00,24.8,52,22.1,20.3
 2003/11/01,21:15,24.8,52,22.1,20.4
 2003/11/01,21:30,24.8,52,22.1,20.5
 2003/11/01,21:45,24.8,52,22.1,19.9
 2003/11/01,22:00,24.7,53,22.1,20
 2003/11/01,22:15,24.6,53,22.1,20.1
 2003/11/01,22:30,24.4,53,22.1,20.2
 2003/11/01,22:45,24.4,54,22.1,20.1
 2003/11/01,23:00,24.4,54,22.1,19.8
 2003/11/01,23:15,24.3,55,22.2,19.9
 2003/11/01,23:30,24.2,56,22.2,19.9
 2003/11/01,23:45,24.2,56,22.2,20.1
 2003/11/02, 0:00,24.2,56,22.2,20.2
 2003/11/02, 0:15,24.1,57,22.1,20.3
 2003/11/02, 0:30,24,57,22.1,20.2
 2003/11/02, 0:45,23.8,57,22.1,20.3
 2003/11/02, 1:00,23.8,56,22.1,20.1
 2003/11/02, 1:15,23.7,56,22,20.2
 2003/11/02, 1:30,23.6,56,22,20.3
 2003/11/02, 1:45,23.5,56,22,20.4
 2003/11/02, 2:00,23.4,57,21.9,20.5
 2003/11/02, 2:15,23.4,57,21.9,20.6
 2003/11/02, 2:30,23.2,57,21.8,20.6
 2003/11/02, 2:45,23.2,57,21.8,20.8
 2003/11/02, 3:00,23.1,57,21.8,20.8
 2003/11/02, 3:15,23.1,57,21.7,20.9
 2003/11/02, 3:30,23.1,57,21.7,21
 2003/11/02, 3:45,23,57,21.6,21.1
 2003/11/02, 4:00,23,57,21.6,21.2
 2003/11/02, 4:15,22.8,57,21.5,21.2
 2003/11/02, 4:30,22.8,57,21.5,21.3
 2003/11/02, 4:45,22.8,57,21.4,21.4
 2003/11/02, 5:00,22.6,57,21.4,21.5
 2003/11/02, 5:15,22.7,57,21.3,21.6
 2003/11/02, 5:30,22.6,57,21.3,21.6
 2003/11/02, 5:45,22.5,58,21.3,21.7
 2003/11/02, 6:00,22.5,58,21.2,21.8
 2003/11/02, 6:15,22.6,57,21.2,21.8
 2003/11/02, 6:30,22.5,58,21.1,21.9
 2003/11/02, 6:45,22.4,57,21.1,21.9
 2003/11/02, 7:00,22.4,58,21.1,21
 2003/11/02, 7:15,22.8,57,21.1,21.1
 2003/11/02, 7:30,22.8,58,21.2,21.2
 2003/11/02, 7:45,22.9,59,21.2,21.2
 2003/11/02, 8:00,23,58,21.2,20.8
 2003/11/02, 8:15,24,55,21.3,20.8
 2003/11/02, 8:30,23.4,58,21.4,19.9
 2003/11/02, 8:45,23.3,58,21.4,20
 2003/11/02, 9:00,23.2,58,21.4,20.1
 2003/11/02, 9:15,23.3,59,21.5,20.2
 2003/11/02, 9:30,23.4,60,21.5,19.3
 2003/11/02, 9:45,23.3,61,21.5,19.4
 2003/11/02,10:00,23.1,62,21.6,19.3
 2003/11/02,10:15,23,63,21.6,19.4
 2003/11/02,10:30,22.9,63,21.6,19.5
 2003/11/02,10:45,22.9,64,21.6,19.6
 2003/11/02,11:00,23,63,21.6,19.6
 2003/11/02,11:15,23,64,21.6,19.8
 2003/11/02,11:30,22.9,64,21.6,19.8
 2003/11/02,11:45,22.9,64,21.6,19.9
 2003/11/02,12:00,22.8,64,21.6,20
 2003/11/02,12:15,22.7,64,21.6,20.1
 2003/11/02,12:30,22.8,64,21.6,20.2
 2003/11/02,12:45,22.8,64,21.6,20.3
 2003/11/02,13:00,22.8,64,21.6,20.4
 2003/11/02,13:15,22.9,64,21.6,20.5
 2003/11/02,13:30,22.8,65,21.6,20.5
 2003/11/02,13:45,22.8,65,21.6,20.6
 2003/11/02,14:00,22.9,65,21.7,20.7
 2003/11/02,14:15,22.9,65,21.7,20.8
 2003/11/02,14:30,22.9,65,21.7,20.9
 2003/11/02,14:45,22.9,65,21.7,21
 2003/11/02,15:00,22.9,65,21.7,21
 2003/11/02,15:15,22.9,65,21.7,21.1
 2003/11/02,15:30,23.1,65,21.8,21.2
 2003/11/02,15:45,23.1,66,21.8,21.3
 2003/11/02,16:00,23,66,21.9,21.2
 2003/11/02,16:15,23,68,21.9,21.2
 2003/11/02,16:30,22.8,70,21.9,21.3
 2003/11/02,16:45,22.7,69,21.9,21.4
 2003/11/02,17:00,22.2,71,21.8,20.4
 2003/11/02,17:15,22.2,72,21.8,20.5
 2003/11/02,17:30,22.6,69,21.8,20.6
 2003/11/02,17:45,22.7,68,21.8,20.7
 2003/11/02,18:00,22.8,68,21.8,20.8
 2003/11/02,18:15,22.8,67,21.8,20.9
 2003/11/02,18:30,23,67,21.8,21
 2003/11/02,18:45,23.1,69,21.9,21
 2003/11/02,19:00,23.4,70,21.9,21.1
 2003/11/02,19:15,23.5,72,21.9,21.2
 2003/11/02,19:30,23.6,73,21.8,20.7
 2003/11/02,19:45,23.7,73,21.8,20.8
 2003/11/02,20:00,23.8,71,21.8,20.9
 2003/11/02,20:15,23.8,71,21.8,19.7
 2003/11/02,20:30,23.7,70,21.8,19.8
 2003/11/02,20:45,23.6,70,21.7,19.9
 2003/11/02,21:00,23.6,71,21.7,20
 2003/11/02,21:15,23.6,71,21.7,19.6
 2003/11/02,21:30,23.6,70,21.6,19.7
 2003/11/02,21:45,23.6,70,21.6,19.8
 2003/11/02,22:00,23.6,72,21.6,19.9
 2003/11/02,22:15,23.7,72,21.6,19.7
 2003/11/02,22:30,23.8,71,21.6,19.8
 2003/11/02,22:45,23.7,70,21.6,19.9
 2003/11/02,23:00,23.6,70,21.8,20
 2003/11/02,23:15,23.7,70,21.9,20.1
 2003/11/02,23:30,23.8,70,21.8,20.3
 2003/11/02,23:45,23.7,70,21.8,19.7
 2003/11/03, 0:00,23.6,70,21.8,19.8
 2003/11/03, 0:15,23.5,70,21.7,19.9
 2003/11/03, 0:30,23.4,70,21.6,20
 2003/11/03, 0:45,23.3,70,21.6,20.3
 2003/11/03, 1:00,23.2,71,21.6,20.3
 2003/11/03, 1:15,23.2,70,21.6,20.4
 2003/11/03, 1:30,23.1,71,21.5,20.5
 2003/11/03, 1:45,23.1,71,21.5,20.6
 2003/11/03, 2:00,23.1,71,21.5,20.7
 2003/11/03, 2:15,22.9,71,21.5,20.8
 2003/11/03, 2:30,23,70,21.4,20.9
 2003/11/03, 2:45,22.9,71,21.4,21
 2003/11/03, 3:00,22.8,71,21.4,21.1
 2003/11/03, 3:15,22.8,71,21.4,21.2
 2003/11/03, 3:30,22.8,71,21.4,21.2
 2003/11/03, 3:45,22.8,71,21.3,21.3
 2003/11/03, 4:00,22.7,71,21.3,21.4
 2003/11/03, 4:15,22.6,71,21.3,21.5
 2003/11/03, 4:30,22.6,71,21.3,21.5
 2003/11/03, 4:45,22.5,71,21.3,21.6
 2003/11/03, 5:00,22.6,71,21.2,21.7
 2003/11/03, 5:15,22.6,71,21.2,21.7
 2003/11/03, 5:30,22.5,71,21.2,21.8
 2003/11/03, 5:45,22.5,71,21.2,21.9
 2003/11/03, 6:00,22.5,71,21.2,21.9
 2003/11/03, 6:15,22.4,71,21.1,22
 2003/11/03, 6:30,22.4,71,21.1,22
 2003/11/03, 6:45,22.3,71,21.1,22.1
 2003/11/03, 7:00,22.4,71,21.1,22.1
 2003/11/03, 7:15,22.4,71,21.1,22.2
 2003/11/03, 7:30,22.3,71,21.1,21.8
 2003/11/03, 7:45,22.3,71,21.1,21.3
 2003/11/03, 8:00,22.4,71,21.1,20.9
 2003/11/03, 8:15,22.3,71,21.1,20.9
 2003/11/03, 8:30,22.5,71,21.1,20.6
 2003/11/03, 8:45,22.5,72,21.1,20.7
 2003/11/03, 9:00,22.6,71,21.2,19.9
 2003/11/03, 9:15,22.6,71,21.2,19.8
 2003/11/03, 9:30,22.6,72,21.2,19.8
 2003/11/03, 9:45,22.6,73,21.2,19.9
 2003/11/03,10:00,22.4,74,21.3,20
 2003/11/03,10:15,22.3,74,21.3,20.1
 2003/11/03,10:30,22.4,75,21.3,20.2
 2003/11/03,10:45,22.4,76,21.3,20.3
 2003/11/03,11:00,22.3,76,21.4,20.4
 2003/11/03,11:15,22.3,76,21.4,20.5
 2003/11/03,11:30,22.4,76,21.4,20.6
 2003/11/03,11:45,22.5,76,21.4,20.7
 2003/11/03,12:00,22.5,76,21.5,20.8
 2003/11/03,12:15,22.6,76,21.5,20.6
 2003/11/03,12:30,22.5,77,21.6,20.6
 2003/11/03,12:45,22.8,80,21.7,20.7
 2003/11/03,13:00,22.9,81,21.8,20.7
 2003/11/03,13:15,22.9,80,21.9,20.7
 2003/11/03,13:30,22.9,79,22,20.3
 2003/11/03,13:45,22.9,79,22,20.3
 2003/11/03,14:00,23,79,22,20.2
 2003/11/03,14:15,23,78,22,20.3
 2003/11/03,14:30,23,77,22.1,20.4
 2003/11/03,14:45,23.3,76,22,20.5
 2003/11/03,15:00,23.2,77,22.1,20.6
 2003/11/03,15:15,23.1,77,22.1,20.6
 2003/11/03,15:30,23.1,77,22.1,20.7
 2003/11/03,15:45,23.1,77,22.1,20.8
 2003/11/03,16:00,23.1,77,22.1,20.9
 2003/11/03,16:15,23.2,76,22.1,21
 2003/11/03,16:30,23.2,76,22.2,21
 2003/11/03,16:45,23.2,76,22.2,21.1
 2003/11/03,17:00,23.1,76,22.2,20.6
 2003/11/03,17:15,23.1,76,22.4,20.3
 2003/11/03,17:30,23,77,22.5,20.4
 2003/11/03,17:45,23.2,76,22.4,20.5
 2003/11/03,18:00,23.1,76,22.3,20.6
 2003/11/03,18:15,23.1,77,22.3,20.7
 2003/11/03,18:30,23.2,76,22.2,20.8
 2003/11/03,18:45,23.2,77,22.3,20.8
 2003/11/03,19:00,23.1,79,22.3,20.9
 2003/11/03,19:15,23.1,80,22.3,21
 2003/11/03,19:30,22.8,78,22.3,21.1
 2003/11/03,19:45,22.7,77,22.2,21.2
 2003/11/03,20:00,22.9,77,22.2,21.3
 2003/11/03,20:15,22.7,77,22.2,21.3
 2003/11/03,20:30,22.7,77,22.2,21.4
 2003/11/03,20:45,22.7,77,22.1,20.4
 2003/11/03,21:00,22.6,77,22.1,20.5
 2003/11/03,21:15,22.6,77,22.1,20.6
 2003/11/03,21:30,22.4,75,22.1,20
 2003/11/03,21:45,22.4,76,22.1,20.1
 2003/11/03,22:00,22.3,75,22.1,20.2
 2003/11/03,22:15,22.2,75,22,20
 2003/11/03,22:30,22.1,76,22,20.1
 2003/11/03,22:45,22.4,76,22,19.8
 2003/11/03,23:00,22.3,76,22,19.5
 2003/11/03,23:15,22.2,77,22,19.6
 2003/11/03,23:30,22.1,77,22,19.7
 2003/11/03,23:45,22.2,77,22,19.8
 2003/11/04, 0:00,22.1,77,22,19.9
 2003/11/04, 0:15,22,77,21.9,20
 2003/11/04, 0:30,22,77,21.9,20.1
 2003/11/04, 0:45,22,76,21.9,20.2
 2003/11/04, 1:00,22,76,21.8,20.3
 2003/11/04, 1:15,21.9,76,21.8,20.4
 2003/11/04, 1:30,21.8,76,21.7,20.5
 2003/11/04, 1:45,21.8,76,21.7,20.6
 2003/11/04, 2:00,21.7,76,21.7,20.6
 2003/11/04, 2:15,21.8,75,21.6,20.7
 2003/11/04, 2:30,21.7,75,21.6,20.8
 2003/11/04, 2:45,21.7,75,21.5,20.9
 2003/11/04, 3:00,21.7,75,21.5,21
 2003/11/04, 3:15,21.7,75,21.5,21.1
 2003/11/04, 3:30,21.6,75,21.4,21.1
 2003/11/04, 3:45,21.7,75,21.4,21.2
 2003/11/04, 4:00,21.7,74,21.4,21.3
 2003/11/04, 4:15,21.7,74,21.3,21.3
 2003/11/04, 4:30,21.7,74,21.3,21.1
 2003/11/04, 4:45,21.6,74,21.2,21.1
 2003/11/04, 5:00,21.6,73,21.2,21.7
 2003/11/04, 5:15,21.5,73,21.4,21.7
 2003/11/04, 5:30,21.5,72,21.2,21.8
 2003/11/04, 5:45,21.3,72,21.1,21.8
 2003/11/04, 6:00,21.3,72,21.1,21.9
 2003/11/04, 6:15,21.2,70,21,21.9
 2003/11/04, 6:30,21.3,70,20.9,21.5
 2003/11/04, 6:45,21.4,71,20.9,21.5
 2003/11/04, 7:00,21.3,70,20.9,21.6
 2003/11/04, 7:15,21.5,71,20.9,20.9
 2003/11/04, 7:30,21.6,70,20.8,21
 2003/11/04, 7:45,21.6,69,20.8,19.6
 2003/11/04, 8:00,21.7,69,20.8,19.8
 2003/11/04, 8:15,22,68,20.8,19.9
 2003/11/04, 8:30,22.5,65,20.7,20
 2003/11/04, 8:45,22.5,64,20.7,20.1
 2003/11/04, 9:00,22.6,64,20.6,20.2
 2003/11/04, 9:15,22.9,63,20.6,20.2
 2003/11/04, 9:30,23,61,20.7,20.3
 2003/11/04, 9:45,22.7,64,20.7,20.4
 2003/11/04,10:00,23.4,62,20.7,20.5
 2003/11/04,10:15,23.6,60,20.9,20.6
 2003/11/04,10:30,23.3,60,20.9,20.7
 2003/11/04,10:45,23.6,60,21,20.7
 2003/11/04,11:00,23.8,59,21.1,20.8
 2003/11/04,11:15,23.9,59,21.3,20.9
 2003/11/04,11:30,24,59,21.4,20.9
 2003/11/04,11:45,24.1,59,21.5,21
 2003/11/04,12:00,24.2,59,21.7,21.1
 2003/11/04,12:15,24.3,59,21.9,21.1
 2003/11/04,12:30,24.4,59,22.1,21.2
 2003/11/04,12:45,24.4,59,22.3,21.3
 2003/11/04,13:00,24.4,59,22.4,21.3
 2003/11/04,13:15,24.4,58,22.5,21.4
 2003/11/04,13:30,24.4,58,22.7,21.5
 2003/11/04,13:45,24.3,58,22.8,21.5
 2003/11/04,14:00,24.3,58,22.8,21.6
 2003/11/04,14:15,24.3,58,22.9,21.7
 2003/11/04,14:30,24.2,59,23,21.7
 2003/11/04,14:45,24.2,59,23,21.8
 2003/11/04,15:00,24.1,59,23,21.9
 2003/11/04,15:15,24.1,58,22.9,21.9
 2003/11/04,15:30,24,58,22.9,22
 2003/11/04,15:45,23.9,58,22.9,22.1
 2003/11/04,16:00,23.8,58,22.9,22.1
 2003/11/04,16:15,23.8,58,22.9,22.2
 2003/11/04,16:30,23.6,59,22.8,21.8
 2003/11/04,16:45,23.6,58,22.7,21.2
 2003/11/04,17:00,23.4,58,22.6,21.3
 2003/11/04,17:15,22.8,49,22.5,21.4
 2003/11/04,17:30,22.9,55,22.4,20.8
 2003/11/04,17:45,23.4,57,22.4,20.3
 2003/11/04,18:00,23.6,58,22.4,19.6
 2003/11/04,18:15,23.5,56,22.4,19.6
 2003/11/04,18:30,23.5,55,22.4,19.7
 2003/11/04,18:45,23.4,54,22.3,19.8
 2003/11/04,19:00,23.3,54,22.2,19.7
 2003/11/04,19:15,23.4,53,22,19.8
 2003/11/04,19:30,23.5,52,22,19.7
 2003/11/04,19:45,23.4,51,22.1,19.8
 2003/11/04,20:00,23.3,51,22,19.9
 2003/11/04,20:15,23.2,51,21.9,19.9
 2003/11/04,20:30,23.1,50,21.6,19.6
 2003/11/04,20:45,23.2,53,21.4,19.7
 2003/11/04,21:00,23.3,53,21.3,19.8
 2003/11/04,21:15,23.3,54,21.1,19.9
 2003/11/04,21:30,23.4,56,21,20
 2003/11/04,21:45,23.4,57,21,20.1
 2003/11/04,22:00,23.3,58,21,19.6
 2003/11/04,22:15,23.3,59,20.9,19.7
 2003/11/04,22:30,23.1,59,20.9,19.6
 2003/11/04,22:45,23.1,59,20.9,19.8
 2003/11/04,23:00,23.1,59,20.8,19.6
 2003/11/04,23:15,22.7,60,20.9,19.7
 2003/11/04,23:30,22.4,61,20.9,19.8
 2003/11/04,23:45,22.2,61,21,19.8
 2003/11/05, 0:00,22.3,61,20.9,19.9
 2003/11/05, 0:15,22.2,60,20.9,20
 2003/11/05, 0:30,22.1,60,20.9,20.1
 2003/11/05, 0:45,22.1,60,20.9,20.2
 2003/11/05, 1:00,22,60,20.8,20.3
 2003/11/05, 1:15,21.9,60,20.7,20.4
 2003/11/05, 1:30,21.7,60,20.7,20.5
 2003/11/05, 1:45,21.7,60,20.6,20.5
 2003/11/05, 2:00,21.6,60,20.6,20.6
 2003/11/05, 2:15,21.4,60,20.5,20.7
 2003/11/05, 2:30,21.4,60,20.4,20.8
 2003/11/05, 2:45,21.3,60,20.4,20.8
 2003/11/05, 3:00,21.2,60,20.3,20.9
 2003/11/05, 3:15,21.1,60,20.2,21
 2003/11/05, 3:30,21,61,20.2,21.1
 2003/11/05, 3:45,20.8,60,20.1,21.1
 2003/11/05, 4:00,20.8,60,20,21.2
 2003/11/05, 4:15,20.6,61,20,21.2
 2003/11/05, 4:30,20.7,61,19.9,21.3
 2003/11/05, 4:45,20.6,61,19.9,21.4
 2003/11/05, 5:00,20.5,61,19.8,21.4
 2003/11/05, 5:15,20.4,61,19.8,21.5
 2003/11/05, 5:30,20.4,61,19.7,21.5
 2003/11/05, 5:45,20.3,61,19.7,21.6
 2003/11/05, 6:00,20.2,61,19.6,21.6
 2003/11/05, 6:15,20.2,61,19.6,21.7
 2003/11/05, 6:30,20.2,62,19.5,21.7
 2003/11/05, 6:45,20.3,62,19.5,21.8
 2003/11/05, 7:00,20.6,62,19.3,20.4
 2003/11/05, 7:15,21.3,59,19.4,20.3
 2003/11/05, 7:30,22.2,59,19.3,20.4
 2003/11/05, 7:45,23,56,19.3,19.8
 2003/11/05, 8:00,24,53,19.3,19.8
 2003/11/05, 8:15,24.2,50,19.3,19.4
 2003/11/05, 8:30,24.1,48,19.3,19.4
 2003/11/05, 8:45,23.9,49,19.5,19.5
 2003/11/05, 9:00,22.4,52,19.1,19.6
 2003/11/05, 9:15,21.7,55,18.9,19.6
 2003/11/05, 9:30,21.6,58,18.8,19.7
 2003/11/05, 9:45,21.8,59,18.8,19.8
 2003/11/05,10:00,21.5,60,18.7,19.8
 2003/11/05,10:15,21.3,60,18.7,19.5
 2003/11/05,10:30,21.7,59,18.7,19.6
 2003/11/05,10:45,22,59,18.9,19.6
 2003/11/05,11:00,22.3,59,19.2,19.7
 2003/11/05,11:15,22.6,59,19.6,19.8
 2003/11/05,11:30,22.7,59,19.9,19.8
 2003/11/05,11:45,22.7,60,20,19.7
 2003/11/05,12:00,22.8,60,20.2,19.6
 2003/11/05,12:15,22.9,60,20.3,19.7
 2003/11/05,12:30,22.7,61,20.2,19.8
 2003/11/05,12:45,22.8,61,20.3,20
 2003/11/05,13:00,22.9,62,20.5,20
 2003/11/05,13:15,22.7,63,20.6,20.1
 2003/11/05,13:30,22.6,63,20.5,20.1
 2003/11/05,13:45,22.5,63,20.5,20.2
 2003/11/05,14:00,22.5,64,20.5,20.3
 2003/11/05,14:15,22.3,64,20.4,20.3
 2003/11/05,14:30,22.2,65,20.3,20.4
 2003/11/05,14:45,22.2,65,20.3,20.5
 2003/11/05,15:00,22.2,65,20.3,20.5
 2003/11/05,15:15,22,66,20.3,20.6
 2003/11/05,15:30,22,65,20.2,20.7
 2003/11/05,15:45,21.9,65,20.2,20.3
 2003/11/05,16:00,21.7,66,20.1,20.4
 2003/11/05,16:15,21.8,66,20.2,19.9
 2003/11/05,16:30,22.5,64,20.2,20.1
 2003/11/05,16:45,22.7,64,20.2,20.2
 2003/11/05,17:00,22.9,64,20.2,20.4
 2003/11/05,17:15,22.9,64,20.2,20.2
 2003/11/05,17:30,23.1,64,20.2,20
 2003/11/05,17:45,23,64,20.2,20.1
 2003/11/05,18:00,23.2,63,20.2,19.7
 2003/11/05,18:15,23.2,63,20.2,19.8
 2003/11/05,18:30,23.2,63,20.2,19.9
 2003/11/05,18:45,23.3,63,20.1,20
 2003/11/05,19:00,22.9,62,20.3,20.1
 2003/11/05,19:15,22.9,63,20.5,19.7
 2003/11/05,19:30,23.1,63,20.6,19.7
 2003/11/05,19:45,23.3,65,20.5,19.8
 2003/11/05,20:00,23.6,69,20.4,19.8
 2003/11/05,20:15,23.6,70,20.4,19.9
 2003/11/05,20:30,23.6,70,20.4,19.6
 2003/11/05,20:45,23.6,67,20.4,19.7
 2003/11/05,21:00,23.7,69,20.5,19.8
 2003/11/05,21:15,23.4,65,20.6,19.9
 2003/11/05,21:30,23.6,67,20.7,19.2
 2003/11/05,21:45,23.7,67,20.7,19.4
 2003/11/05,22:00,23.8,67,20.6,19.5
 2003/11/05,22:15,23.7,66,20.7,19.6
 2003/11/05,22:30,23.7,67,20.7,18.9
 2003/11/05,22:45,23.9,67,20.7,19
 2003/11/05,23:00,23.8,67,20.7,19.1
 2003/11/05,23:15,23.9,67,20.7,19.2
 2003/11/05,23:30,23.9,68,20.8,19.3
 2003/11/05,23:45,23.7,68,20.8,19.7
 2003/11/06, 0:00,23.7,68,20.8,19.8
 2003/11/06, 0:15,23.4,68,20.9,19.9
 2003/11/06, 0:30,23.3,69,20.9,19.9
 2003/11/06, 0:45,23.2,68,20.9,20
 2003/11/06, 1:00,23.1,69,20.9,20.1
 2003/11/06, 1:15,22.9,69,20.9,20.2
 2003/11/06, 1:30,22.7,69,20.8,20.3
 2003/11/06, 1:45,22.7,70,20.8,20.4
 2003/11/06, 2:00,22.5,70,20.8,20.5
 2003/11/06, 2:15,22.6,70,20.8,20.6
 2003/11/06, 2:30,22.6,70,20.7,20.7
 2003/11/06, 2:45,22.4,70,20.7,20.7
 2003/11/06, 3:00,22.4,70,20.7,20.8
 2003/11/06, 3:15,22.3,70,20.7,20.9
 2003/11/06, 3:30,22.3,70,20.6,21
 2003/11/06, 3:45,22.2,70,20.6,21
 2003/11/06, 4:00,22.1,70,20.6,21.1
 2003/11/06, 4:15,22.1,71,20.6,21.2
 2003/11/06, 4:30,22.1,71,20.5,21.2
 2003/11/06, 4:45,22,71,20.5,21.3
 2003/11/06, 5:00,22,71,20.5,21.4
 2003/11/06, 5:15,22,71,20.5,20.6
 2003/11/06, 5:30,22,71,20.5,20.8
 2003/11/06, 5:45,21.9,70,20.4,20.8
 2003/11/06, 6:00,21.9,70,20.4,20.9
 2003/11/06, 6:15,21.9,70,20.4,20.8
 2003/11/06, 6:30,22,72,20.4,20.8
 2003/11/06, 6:45,22,74,20.3,20.9
 2003/11/06, 7:00,22,72,20.3,20.3
 2003/11/06, 7:15,22.3,72,20.5,20.4
 2003/11/06, 7:30,22.4,72,20.4,20.5
 2003/11/06, 7:45,22.3,73,20.6,19.1
 2003/11/06, 8:00,22.1,74,20.8,19.2
 2003/11/06, 8:15,22,74,21,19.3
 2003/11/06, 8:30,21.8,74,20.9,19.4
 2003/11/06, 8:45,21.7,74,20.9,19.5
 2003/11/06, 9:00,21.6,75,20.8,19.6
 2003/11/06, 9:15,21.6,75,20.7,19.7
 2003/11/06, 9:30,21.6,75,20.7,19.8
 2003/11/06, 9:45,21.5,75,20.7,19.8
 2003/11/06,10:00,21.5,75,20.6,19.9
 2003/11/06,10:15,21.6,75,20.6,20
 2003/11/06,10:30,21.6,75,20.6,20.1
 2003/11/06,10:45,21.8,74,20.6,20.2
 2003/11/06,11:00,21.9,74,20.7,20.3
 2003/11/06,11:15,22.2,73,20.7,20.4
 2003/11/06,11:30,22.3,72,20.8,20.4
 2003/11/06,11:45,22.4,72,20.9,20.5
 2003/11/06,12:00,22.2,73,20.9,20.6
 2003/11/06,12:15,22.1,73,20.9,20.7
 2003/11/06,12:30,22,74,20.9,20.7
 2003/11/06,12:45,22,74,20.9,20.8
 2003/11/06,13:00,21.9,74,20.9,20.9
 2003/11/06,13:15,21.9,74,20.9,20.9
 2003/11/06,13:30,21.9,74,20.9,21
 2003/11/06,13:45,21.9,74,20.9,21.1
 2003/11/06,14:00,22.1,73,20.9,21.1
 2003/11/06,14:15,22.2,73,21,21.2
 2003/11/06,14:30,22.3,72,21,21.2
 2003/11/06,14:45,22.3,73,21.1,21.3
 2003/11/06,15:00,22.2,73,21.1,21.3
 2003/11/06,15:15,22.3,72,21.1,21.4
 2003/11/06,15:30,22.3,73,21.1,20.6
 2003/11/06,15:45,22.3,73,21.2,20.6
 2003/11/06,16:00,22.3,73,21.2,20.3
 2003/11/06,16:15,22.2,73,21.2,20.4
 2003/11/06,16:30,22.2,73,21.1,20.5
 2003/11/06,16:45,22.1,73,21.1,20.6
 2003/11/06,17:00,22.1,73,21.1,20.7
 2003/11/06,17:15,22,73,21.1,20.7
 2003/11/06,17:30,22,73,21.1,20.8
 2003/11/06,17:45,22,73,21.4,20.5
 2003/11/06,18:00,22.1,74,21.5,20.6
 2003/11/06,18:15,22.2,75,21.5,20.7
 2003/11/06,18:30,22.3,75,21.4,20.8
 2003/11/06,18:45,22.4,74,21.3,20.8
 2003/11/06,19:00,22.4,74,21.3,20.9
 2003/11/06,19:15,22.5,74,21.2,21
 2003/11/06,19:30,22.5,73,21.2,21
 2003/11/06,19:45,22.6,73,21.2,21.1
 2003/11/06,20:00,22.6,73,21.2,21.2
 2003/11/06,20:15,22.6,72,21.1,21.2
 2003/11/06,20:30,22.7,72,21,21.3
 2003/11/06,20:45,22.6,73,21,20.3
 2003/11/06,21:00,22.6,73,20.9,20.4
 2003/11/06,21:15,22.5,72,20.9,20.5
 2003/11/06,21:30,22.6,72,20.8,20.6
 2003/11/06,21:45,22.6,71,20.8,20.7
 2003/11/06,22:00,22.7,72,20.8,20.8
 2003/11/06,22:15,22.8,72,20.7,20.8
 2003/11/06,22:30,23,72,20.7,20.9
 2003/11/06,22:45,23.2,72,20.7,21
 2003/11/06,23:00,23,72,20.8,19.5
 2003/11/06,23:15,23.1,72,20.7,19.5
 2003/11/06,23:30,23.1,73,20.8,19.6
 2003/11/06,23:45,23.1,73,20.8,19.7
 2003/11/07, 0:00,23.2,72,20.8,19.8
 2003/11/07, 0:15,23,72,20.9,19.9
 2003/11/07, 0:30,22.7,72,20.9,19.9
 2003/11/07, 0:45,22.6,72,21,20
 2003/11/07, 1:00,22.5,72,21,20.1
 2003/11/07, 1:15,22.4,72,21,20.2
 2003/11/07, 1:30,22.3,72,21,20.3
 2003/11/07, 1:45,22.2,72,20.9,20.4
 2003/11/07, 2:00,22.1,72,20.9,20.5
 2003/11/07, 2:15,22,72,20.9,20.6
 2003/11/07, 2:30,21.9,72,20.8,20.6
 2003/11/07, 2:45,21.9,72,20.8,20.7
 2003/11/07, 3:00,21.8,72,20.8,20.8
 2003/11/07, 3:15,21.7,72,20.8,20.9
 2003/11/07, 3:30,21.7,72,20.7,21
 2003/11/07, 3:45,21.6,73,20.7,21
 2003/11/07, 4:00,21.5,73,20.6,21.1
 2003/11/07, 4:15,21.5,72,20.6,21.2
 2003/11/07, 4:30,21.4,72,20.6,21.2
 2003/11/07, 4:45,21.3,72,20.5,21.3
 2003/11/07, 5:00,21.2,72,20.5,21.3
 2003/11/07, 5:15,21.2,72,20.4,21.4
 2003/11/07, 5:30,21.2,72,20.4,21.5
 2003/11/07, 5:45,21.2,74,20.4,21.5
 2003/11/07, 6:00,21.1,74,20.3,21.6
 2003/11/07, 6:15,21.1,74,20.3,20.5
 2003/11/07, 6:30,21.2,76,20.3,20.2
 2003/11/07, 6:45,21.1,75,20.3,20.3
 2003/11/07, 7:00,20.7,74,20.4,20.4
 2003/11/07, 7:15,21.3,71,20.4,19.5
 2003/11/07, 7:30,21.8,66,20.2,19.6
 2003/11/07, 7:45,22.7,62,20.1,19.4
 2003/11/07, 8:00,23.6,59,20.1,19.5
 2003/11/07, 8:15,24.2,57,20.1,19.2
 2003/11/07, 8:30,24.7,56,20.2,19.3
 2003/11/07, 8:45,24.9,55,20.2,19.4
 2003/11/07, 9:00,25.2,55,20.3,19.4
 2003/11/07, 9:15,25.3,54,20.4,19.5
 2003/11/07, 9:30,25.4,54,20.6,19.6
 2003/11/07, 9:45,25.2,55,20.8,19.7
 2003/11/07,10:00,25,55,21,19.7
 2003/11/07,10:15,24.9,56,21.1,19.8
 2003/11/07,10:30,24.9,57,21.2,19.9
 2003/11/07,10:45,24.7,57,21.3,20
 2003/11/07,11:00,24.6,57,21.4,20
 2003/11/07,11:15,24.7,56,21.5,20.1
 2003/11/07,11:30,24.8,55,21.7,20.2
 2003/11/07,11:45,24.8,55,21.8,20.3
 2003/11/07,12:00,24.6,55,21.8,20.4
 2003/11/07,12:15,24.7,55,21.9,20.4
 2003/11/07,12:30,24.7,55,22.1,20.5
 2003/11/07,12:45,24.3,55,22,20.6
 2003/11/07,13:00,24.2,55,22,20.7
 2003/11/07,13:15,24.2,55,22,20.8
 2003/11/07,13:30,24.2,55,22,20.8
 2003/11/07,13:45,24.2,55,22,20.9
 2003/11/07,14:00,24.1,55,22.1,21
 2003/11/07,14:15,24.1,55,22.2,21
 2003/11/07,14:30,24.1,54,22.2,21.1
 2003/11/07,14:45,24,54,22.2,21.2
 2003/11/07,15:00,24,55,22.3,21.3
 2003/11/07,15:15,24,55,22.3,21.4
 2003/11/07,15:30,23.9,57,22.4,21.4
 2003/11/07,15:45,23.8,57,22.4,21.5
 2003/11/07,16:00,23.7,57,22.4,21.6
 2003/11/07,16:15,23.7,57,22.3,21.6
 2003/11/07,16:30,23.6,56,22.3,21.7
 2003/11/07,16:45,23.5,54,22.4,21.8
 2003/11/07,17:00,23.5,55,22.4,21.8
 2003/11/07,17:15,23.4,55,22.1,21.9
 2003/11/07,17:30,23.3,56,22,22
 2003/11/07,17:45,23.2,56,22,22
 2003/11/07,18:00,23.1,56,22.2,22.1
 2003/11/07,18:15,23.3,57,22.3,22.2
 2003/11/07,18:30,23.3,56,22.1,22.2
 2003/11/07,18:45,23.3,56,22,20.9
 2003/11/07,19:00,23.2,58,21.8,21.1
 2003/11/07,19:15,23.1,58,21.7,21.2
 2003/11/07,19:30,23.2,58,21.7,21.3
 2003/11/07,19:45,23.4,59,21.7,21.4